Change the Weather History Date:

Thursday, November 28, 2013

  Actual Average Record
Temperature  
Mean Temperature 62 °F -  
Max Temperature 78 °F - - ()
Min Temperature 46 °F - - ()
Degree Days  
Heating Degree Days 3    
Growing Degree Days 12 (Base 50)    
Moisture  
Dew Point 30 °F    
Average Humidity 29    
Maximum Humidity 53    
Minimum Humidity 8    
Precipitation  
Precipitation 0.00 in - - ()
Sea Level Pressure  
Sea Level Pressure 30.01 in    
Wind  
Wind Speed 6 mph ()    
Max Wind Speed 14 mph    
Max Gust Speed -    
Visibility 6.0 miles    
Events      
T = Trace of Precipitation, MM = Missing Value Source: Averaged Metar Reports

Daily Weather History Graph

Daily Weather History Graph

Search for Another Location

Airport or City:

Trip Planner

Search our weather history database for the weather conditions in past years. The results will help you decide how hot, cold, wet, or windy it might be!

Date:

Astronomy

Nov. 28, 2013 Rise Set
Actual Time 7:14 AM WET 5:36 PM WET
Civil Twilight 6:48 AM WET 6:02 PM WET
Nautical Twilight 6:18 AM WET 6:32 PM WET
Astronomical Twilight 5:49 AM WET 7:01 PM WET
Moon 2:22 AM WET (11/28) 2:21 PM WET (11/28)
Length of Visible Light 11h 14m
Length of Day
10h 22m
Waning Crescent, 24% of the Moon is Illuminated
Nov 28
Waning Crescent
Dec 3
New
Dec 9
First Quarter
Dec 17
Full
Dec 25
Last Quarter

Hourly Weather History & Observations

Time (WET) Temp. Windchill Dew Point Humidity Pressure Visibility Wind Dir Wind Speed Gust Speed Precip Events Conditions
12:00 AM 51.8 °F - 28.4 °F 41% 30.04 in - ENE 6.9 mph - N/A   Clear
1:00 AM 51.8 °F - 28.4 °F 41% 30.01 in - East 6.9 mph - N/A   Clear
2:00 AM 51.8 °F - 28.4 °F 41% 30.01 in - East 9.2 mph - N/A   Clear
3:00 AM 52 °F - 29 °F 28% 30.03 in 6 mi East 8.1 mph - -  
3:00 AM 51.8 °F - 28.4 °F 41% 30.01 in - East 8.1 mph - N/A   Clear
4:00 AM 50.0 °F - 30.2 °F 47% 30.01 in - ENE 8.1 mph - N/A   Clear
5:00 AM 48.2 °F - 30.2 °F 50% 30.01 in - ENE 9.2 mph - N/A   Clear
6:00 AM 47 °F - 30 °F 40% 30.04 in 6 mi ENE 8.1 mph - -   Clear
7:00 AM 46.4 °F 42.4 °F 30.2 °F 53% 30.04 in - ENE 8.1 mph - N/A   Clear
8:00 AM 50.0 °F - 30.2 °F 47% 30.06 in - ENE 8.1 mph - N/A   Clear
9:00 AM 57 °F - 29 °F 23% 30.08 in 6 mi ENE 11.5 mph - -  
9:00 AM 57.2 °F - 30.2 °F 36% 30.06 in - ENE 11.5 mph - N/A   Clear
10:00 AM 64.4 °F - 30.2 °F 28% 30.06 in - ENE 12.7 mph - N/A   Clear
11:00 AM 71.6 °F - 24.8 °F 17% 30.06 in - ENE 13.8 mph - N/A   Clear
11:10 AM 71.6 °F - 24.8 °F 17% 30.06 in - ENE 13.8 mph - N/A   Clear
12:00 PM 75 °F - 26 °F 8% 30.03 in 6 mi ENE 10.4 mph - -  
12:00 PM 75.2 °F - 26.6 °F 17% 30.04 in - ENE 10.4 mph - N/A   Clear
1:00 PM 77.0 °F - 26.6 °F 16% 30.01 in - ENE 6.9 mph - N/A   Clear
2:00 PM 78.8 °F - 28.4 °F 16% 29.98 in - Calm Calm - N/A   Clear
3:00 PM 78.8 °F - 30.2 °F 17% 29.95 in - Calm Calm - N/A   Clear
4:00 PM 77.0 °F - 30.2 °F 18% 29.95 in - Calm Calm - N/A   Clear
5:00 PM 77.0 °F - 32.0 °F 19% 29.95 in - Calm Calm - N/A   Clear
6:00 PM 71 °F - 34 °F 16% 29.97 in 6 mi Calm Calm - -   Clear
6:00 PM 71.6 °F - 33.8 °F 25% 29.95 in - Calm Calm - N/A   Clear
7:00 PM 69.8 °F - 33.8 °F 27% 29.98 in - Calm Calm - N/A   Clear
8:00 PM 68.0 °F - 33.8 °F 28% 29.98 in - Calm Calm - N/A   Clear
9:00 PM 66 °F - 34 °F 20% 30.00 in 6 mi Calm Calm - -   Scattered Clouds
9:00 PM 66.2 °F - 33.8 °F 30% 29.98 in - Calm Calm - N/A   Clear
10:00 PM 66.2 °F - 33.8 °F 30% 30.01 in - Calm Calm - N/A   Clear
11:00 PM 59.0 °F - 33.8 °F 39% 30.01 in - Calm Calm - N/A   Clear